Location: Weymouth Pines Observatory
(42.9326°N, 81.3883°W)
Time: 02:45:34
(UTC-04:00)

Daily predictions for brighter satellites

Satellite Brightness Start Highest point End
(mag) Time Altitude Azimuth Time Altitude Azimuth Time Altitude Azimuth
USA 215 4.2 00:13:51 35° WSW 00:13:51 35° WSW 00:18:35 10° WNW
H-2A R/B 3.9 00:21:51 21° WNW 00:21:51 21° WNW 00:24:40 10° NW
SL-16 R/B 3.2 00:26:09 44° N 00:26:09 44° N 00:30:14 10° NNE
Lacrosse 5 4.3 00:21:08 10° WNW 00:22:12 14° W 00:22:12 14° W
Cosmos 1464 Rocket 4.4 00:28:15 59° N 00:28:15 59° N 00:33:22 10° N
Cosmos 2360 Rocket 3.6 00:48:09 32° NNE 00:48:09 32° NNE 00:51:04 10° NNE
Cosmos 1844 Rocket 4.2 00:40:59 10° N 00:44:42 30° NNE 00:44:42 30° NNE
Cosmos 2219 Rocket 4.3 01:11:54 18° NE 01:11:54 18° NE 01:13:33 10° NE
Cosmos 2333 Rocket 4.4 01:15:45 17° ENE 01:15:45 17° ENE 01:17:24 10° NE
Cosmos 2322 Rocket 4.0 01:15:26 24° NW 01:15:29 24° NW 01:20:02 10° N
Cosmos 2263 Rocket 4.1 01:10:42 10° NW 01:12:49 21° WNW 01:12:49 21° WNW
Cosmos 2237 Rocket 4.3 01:25:03 17° ENE 01:25:03 17° ENE 01:26:47 10° NE
Lacrosse 4 Rocket 4.3 01:30:52 15° NNE 01:30:52 15° NNE 01:31:43 10° NNE
COSMOS 2428 4.1 01:31:04 34° NNE 01:31:04 34° NNE 01:34:10 10° NNE
ATLAS CENTAUR R/B 4.3 01:31:55 65° SW 01:34:05 87° NW 02:02:07 10° NE
ATLAS 3B R/B 4.0 01:39:03 33° E 01:39:03 33° E 01:43:47 10° NE
Cosmos 2278 Rocket 3.5 01:49:40 10° NNW 01:53:14 37° N 01:53:14 37° N
COSMOS 2455 4.0 02:07:19 38° NE 02:07:19 38° NE 02:11:03 10° NE
CZ-3A R/B 3.6 02:26:06 75° W 02:26:37 80° NW 02:31:25 10° NE
Cosmos 2360 Rocket 4.3 02:29:54 18° NW 02:30:06 18° NW 02:33:54 10° N
CZ-2C R/B 4.2 02:31:03 10° N 02:34:28 28° NW 02:34:28 28° NW
Cosmos 2266 Rocket 4.4 02:43:59 10° N 02:49:10 60° NNW 02:49:10 60° NNW
Cosmos 2219 Rocket 3.3 02:53:37 35° NNW 02:53:37 35° NNW 02:57:45 10° NNE
Cosmos 2333 Rocket 3.1 02:57:45 43° NNW 02:57:45 43° NNW 03:02:16 10° NNE
NPP 4.5 02:52:27 10° NNE 02:56:42 46° ENE 02:56:42 46° ENE
SL-16 R/B 2.8 03:00:03 55° NE 03:00:03 55° NE 03:04:32 10° NNE
Cosmos 2237 Rocket 3.0 03:06:52 43° NNW 03:06:52 43° NNW 03:11:24 10° NNE
Lacrosse 4 Rocket 4.3 03:07:13 11° NW 03:07:13 11° NW 03:08:20 10° NNW
BREEZE-M DEB (TANK) 4.0 03:20:28 63° SSW 03:21:38 72° SE 03:26:03 10° ENE
ADEOS 4.1 03:20:07 10° NNE 03:24:58 51° E 03:24:58 51° E
Cosmos 1048 Rocket 4.4 03:27:21 61° ENE 03:27:21 61° ENE 03:32:12 10° NNE
ATLAS 3B R/B 3.2 03:26:18 49° W 03:27:34 54° NW 03:34:51 10° NNE
Cosmos 1867 3.7 03:29:33 69° NE 03:29:33 69° NE 03:34:25 10° NE
Resurs 1-4 Rocket 3.4 03:26:42 10° NE 03:31:20 31° E 03:32:24 28° ESE
ATLAS CENTAUR R/B 4.1 03:30:01 10° N 03:33:19 20° NE 03:36:25 10° E
ERS-2 4.1 03:33:39 10° NNE 03:35:51 29° NE 03:35:51 29° NE
Cosmos 1269 Rocket 4.1 03:41:10 73° N 03:41:10 73° N 03:46:01 10° NNE
Cosmos 1603 3.9 03:40:49 60° SE 03:41:06 60° ESE 03:46:45 10° NNE
CZ-4C R/B 2.1 03:41:23 85° ENE 03:41:23 85° ENE 03:47:17 10° NE
Cosmos 1607 3.8 03:41:28 74° W 03:41:44 76° NW 03:47:56 10° NNE
AQUA 4.3 03:40:06 10° N 03:43:55 53° NNW 03:43:55 53° NNW
ARIANE 5 R/B 3.0 03:40:09 10° NNE 03:45:17 52° E 03:45:54 49° SE
ATLAS 5 CENTAUR R/B 4.4 03:46:37 10° ESE 03:47:37 11° ESE 03:48:38 10° E
COSMOS 2455 4.2 03:50:28 26° WNW 03:51:28 27° NW 03:56:31 10° NNE
Okean O Rocket 4.2 03:52:47 10° NE 03:55:29 16° E 03:58:10 10° SE
Cosmos 1151 Rocket 3.9 03:59:59 42° NNW 03:59:59 42° NNW 04:03:09 10° N
SL-16 R/B 2.4 04:03:00 35° SSE 04:05:49 87° ENE 04:12:02 10° NNW
BREEZE-M DEB (TANK) 3.9 04:00:28 10° WNW 04:07:28 49° WNW 04:07:28 49° WNW
IRS-1C 4.4 04:05:17 10° N 04:10:26 51° WNW 04:10:39 50° WNW
USA 234 3.2 04:05:52 10° NE 04:12:25 78° NW 04:14:35 46° WSW
USA 238 DEB 4.1 04:11:20 41° W 04:13:27 54° NW 04:20:23 10° NNE
USA 238 4.1 04:11:27 41° W 04:13:34 54° NW 04:20:29 10° NNE
ERBS 3.4 04:14:53 44° NNE 04:14:53 44° NNE 04:17:29 10° NE
Cosmos 1943 3.9 04:12:12 33° SSE 04:14:17 49° ESE 04:19:43 10° NE
Cosmos 2251 Rocket 3.8 04:14:04 46° SSE 04:15:27 63° ESE 04:20:40 10° NNE
S3M 4.0 04:15:52 51° WSW 04:17:00 59° W 04:23:15 10° N
SeaSat 1 3.0 04:13:33 10° SE 04:18:22 59° ENE 04:23:14 10° NNW
UNK 3.6 04:19:52 72° SSW 04:20:12 77° WSW 04:24:51 10° NNW
Cosmos 1300 3.3 04:22:33 47° NNW 04:22:33 47° NNW 04:25:35 10° N
Cosmos 1110 Rocket 3.9 04:19:25 10° NNW 04:24:40 87° ENE 04:28:45 17° SSE
Cosmos 158 Rocket 3.8 04:24:01 60° WSW 04:24:46 70° WNW 04:29:47 10° NNE
Cosmos 2369 Rocket 2.4 04:19:53 10° NNW 04:25:29 68° ENE 04:31:05 10° SSE
Cosmos 2292 Rocket 4.0 04:23:50 10° N 04:26:38 37° E 04:26:59 36° E
CZ-2D R/B 2.0 04:21:24 10° NNE 04:26:43 87° WNW 04:28:18 47° SSW
Cosmos 1726 2.6 04:29:41 49° NW 04:29:41 49° NW 04:32:47 10° N
CZ-2D R/B 4.2 04:25:30 10° NNE 04:29:51 54° E 04:31:34 32° SSE
Cosmos 2242 Rocket 4.0 04:28:23 37° SSE 04:30:03 64° E 04:34:37 10° NNE
NOSS 3-2 (A) 3.4 04:28:40 44° SW 04:30:48 82° NW 04:37:31 10° NE
Cosmos 1340 Rocket 4.0 04:28:16 10° NNW 04:30:44 31° NW 04:30:44 31° NW
Cosmos 1455 3.4 04:33:30 24° SSE 04:35:20 41° E 04:39:02 10° NNE
Cosmos 1271 Rocket 3.5 04:36:55 39° WNW 04:36:55 39° WNW 04:40:20 10° N
Cosmos 1869 Rocket 3.8 04:32:50 10° NNW 04:36:55 48° W 04:36:55 48° W
NOSS 3-3 (A) 4.4 04:31:12 10° NW 04:38:39 75° WSW 04:46:34 10° SSE
Cosmos 1553 Rocket 4.5 04:37:19 36° WSW 04:38:40 40° WNW 04:44:24 10° N
NOSS 3-3 (C) 4.4 04:31:18 10° NW 04:38:46 76° WSW 04:46:41 10° SSE
Cosmos 1745 Rocket 4.4 04:35:03 10° NNW 04:40:59 43° W 04:42:43 35° SW
Cosmos 1709 Rocket 4.0 04:36:50 10° N 04:43:15 88° WSW 04:49:33 10° S
SL-16 R/B 3.8 04:41:56 18° WNW 04:43:34 20° NW 04:47:45 10° N
NOSS 3-2 (C) 3.5 04:42:57 36° SW 04:45:42 81° NW 04:52:27 10° NE
CZ-4B R/B 4.4 04:44:22 10° NE 04:47:37 30° E 04:50:41 11° SSE
Meteor 1-27 4.3 04:47:53 36° SW 04:49:55 56° WNW 04:55:24 10° N
MOS 1-B 4.3 04:44:38 10° NNE 04:50:27 78° WNW 04:53:45 27° SSW
Cosmos 1862 Rocket 4.4 04:47:14 15° SSE 04:50:37 49° E 04:54:52 10° NNE
Cosmos 839 Rocket 4.3 04:44:01 10° NW 04:52:11 65° WSW 04:58:44 10° SSE
Cosmos 2263 4.3 04:46:40 10° NNW 04:52:30 81° ENE 04:58:17 10° SSE
Coronas F rocket 3.9 04:51:33 10° NNW 04:51:59 13° NNW 04:51:59 13° NNW
CENTAUR R/B 3.8 04:50:51 10° S 04:56:14 35° ESE 05:02:12 10° NE
Cosmos 1943 Rocket 2.9 04:54:25 10° NNW 05:00:01 56° ENE 05:05:33 10° SE
UNKNOWN OBJECT B 3.2 05:02:18 10° N 05:05:48 40° WNW 05:06:33 35° WSW
EO 1 Del DPAF 3.9 05:06:19 33° W 05:06:23 33° W 05:09:57 10° NNW
Cosmos 1356 Rocket 4.5 05:04:21 10° NW 05:07:25 26° W 05:07:25 26° W
Cosmos 724 4.3 05:04:20 24° SSW 05:08:05 89° SE 05:14:10 10° NNE
IRS-1D 4.5 05:03:58 10° N 05:08:28 31° WNW 05:10:24 24° WSW
Cosmos 1869 3.3 05:06:12 18° S 05:09:04 81° E 05:13:04 10° N
ARGOS Delta rocket 3.5 05:05:05 10° N 05:09:31 73° WNW 05:12:24 21° SSW
ERS-2 4.1 05:08:27 10° NNW 05:10:38 15° WNW 05:10:40 15° WNW
Cosmos 389 Rocket 3.2 05:08:01 14° S 05:10:52 53° E 05:14:17 10° NNE
MTI 4.3 05:10:50 37° WSW 05:11:01 38° W 05:14:10 10° NNW
Resurs 1-4 Rocket 2.8 05:06:26 10° N 05:11:11 35° WNW 05:13:28 24° WSW
Cosmos 494 Rocket 4.2 05:08:30 26° SW 05:11:18 57° WNW 05:16:31 10° NNE
ATLAS CENTAUR R/B 1.3 05:08:33 10° NW 05:12:49 56° WSW 05:16:41 10° SSE
Cosmos 1302 Rocket 3.9 05:10:27 10° NNW 05:15:40 65° WSW 05:20:49 10° S
Cosmos 1825 3.5 05:12:07 10° N 05:15:44 41° ENE 05:19:20 10° SSE
Cosmos 1733 Rocket 3.0 05:14:08 10° NNW 05:18:28 64° W 05:22:48 10° S
Abrixas rocket 3.8 05:16:36 14° WNW 05:18:55 30° N 05:21:56 10° ENE
ARIANE 5 R/B 4.0 05:20:05 10° NNW 05:24:01 22° WNW 05:26:14 17° W
Cosmos 1408 3.3 05:23:43 10° N 05:27:23 56° E 05:31:05 10° SSE
BREEZE-M DEB (TANK) 3.8 05:24:11 10° WNW 05:28:02 68° SSW 05:37:43 10° SE
CZ-4C R/B 3.9 05:26:34 11° W 05:30:40 23° NNW 05:35:31 10° NNE
ADEOS II 3.0 05:26:07 10° NNE 05:31:13 49° E 05:36:17 10° S
ATLAS 5 CENTAUR R/B 1.9 05:27:26 16° SSW 05:31:18 86° ESE 05:36:34 10° NE
Okean-O 3.5 05:27:22 10° NNE 05:31:43 51° E 05:36:01 10° S
Cosmos 2285 Rocket 4.4 05:25:16 10° NNW 05:31:43 69° ENE 05:38:05 10° SSE
Okean O Rocket 1.9 05:27:49 10° N 05:32:10 52° WNW 05:35:51 14° SW
Cosmos 2315 Rocket 4.4 05:27:27 16° SW 05:32:11 43° WNW 05:38:07 10° N
Cosmos 2221 Rocket 4.4 05:30:14 10° S 05:34:32 52° E 05:38:51 10° NNE
Cosmos 1892 3.9 05:33:22 10° NW 05:36:26 23° W 05:37:56 18° WSW
CZ-2C R/B 4.1 05:36:07 10° SSW 05:40:15 38° W 05:44:24 10° NNW
PSLV R/B 3.4 05:39:06 19° WSW 05:41:25 61° S 05:44:46 10° E
Cosmos 1908 Rocket 3.5 05:39:48 10° NNW 05:44:13 76° W 05:48:34 10° S
Geosat 4.0 05:39:57 10° NNE 05:45:00 88° WNW 05:50:02 10° SSW
MOZ.5/SAFIR/RUBIN 5/SL-8 4.4 05:41:00 10° SSW 05:45:10 33° W 05:49:23 10° NNW
Cosmos 1184 Rocket 3.6 05:43:22 10° NNW 05:46:29 32° W 05:49:34 10° SSW
COSMOS 2406 3.6 05:41:47 10° SSW 05:47:30 67° ESE 05:53:14 10° NNE
Sich 1 Rocket 3.6 05:43:14 10° NNW 05:47:33 55° W 05:51:49 10° S
BREEZE-M DEB (TANK) 1.7 05:45:51 10° WNW 05:48:04 68° SSW 05:50:51 10° SE
Thor Agena Rocket 3.6 05:43:14 10° S 05:48:16 57° WSW 05:53:23 10° NNW
SL-16 R/B 4.0 05:48:06 12° WSW 05:50:12 14° W 05:53:27 10° WNW
USA 234 4.4 05:49:07 10° NE 05:54:52 34° NNW 06:00:36 10° W
SeaSat 1 3.7 05:52:43 10° SSW 05:56:13 19° WSW 05:59:43 10° WNW
Pageos (A) 4.3 05:54:45 10° NW 05:56:32 21° W 05:58:16 10° SW
Cosmos 1943 4.3 05:54:02 11° WSW 05:58:34 28° NW 06:03:22 10° N
USA 32 4.0 05:57:01 10° SSW 06:02:14 69° W 06:07:28 10° N
Cosmos 1703 Rocket 3.6 05:57:56 10° SSW 06:02:22 70° W 06:06:52 10° N
CZ-2D R/B 4.0 06:03:43 10° NNW 06:05:58 13° WNW 06:08:14 10° W
CZ-4B R/B 3.8 06:02:27 10° N 06:07:19 37° WNW 06:12:08 10° SW
Cosmos 2369 Rocket 3.5 06:05:22 10° WNW 06:08:52 17° W 06:12:23 10° SW
Cosmos 1455 4.1 06:09:06 10° WSW 06:11:17 14° WNW 06:13:30 10° NW
SL-27 R/B 2.9 06:08:00 10° SW 06:11:32 47° WNW 06:15:05 10° N
Cosmos 1992 Rocket 4.0 06:09:43 10° NNW 06:14:53 62° WSW 06:20:01 10° S
